Weather History for K3MW - October, 2012

Change the Weather History Date:

Tuesday, October 30, 2012

  Actual Average Record
Temperature  
Mean Temperature 40 °F -  
Max Temperature 44 °F - - ()
Min Temperature 35 °F - - ()
Degree Days  
Heating Degree Days 26    
Moisture  
Dew Point 21 °F    
Average Humidity 49    
Maximum Humidity 65    
Minimum Humidity 33    
Precipitation  
Precipitation 0.00 in - - ()
Sea Level Pressure  
Sea Level Pressure 30.24 in    
Wind  
Wind Speed 13 mph (West)    
Max Wind Speed 17 mph    
Max Gust Speed 26 mph    
Visibility 10 miles    
Events      
T = Trace of Precipitation, MM = Missing Value Source: NWS Daily Summary

Daily Weather History Graph

Daily Weather History Graph

Search for Another Location

Airport or City:

Trip Planner

Search our weather history database for the weather conditions in past years. The results will help you decide how hot, cold, wet, or windy it might be!

Date:

Astronomy

Oct. 30, 2012 Rise Set
Actual Time 7:35 AM MDT 6:05 PM MDT
Civil Twilight 7:06 AM MDT 6:33 PM MDT
Nautical Twilight 6:34 AM MDT 7:05 PM MDT
Astronomical Twilight 6:03 AM MDT 7:37 PM MDT
Moon 6:36 PM MDT (10/30) 8:24 AM MDT (10/30)
Length of Visible Light 11h 26m
Length of Day
10h 30m
Full, 99% of the Moon is Illuminated
Oct 30
Full
Nov 6
Last Quarter
Nov 13
New
Nov 20
First Quarter
Nov 28
Full

Hourly Weather History & Observations

Time (MDT) Temp. Windchill Dew Point Humidity Pressure Visibility Wind Dir Wind Speed Gust Speed Precip Events Conditions
12:35 AM 37.4 °F 28.9 °F 23.0 °F 56% 30.25 in 10.0 mi West 13.8 mph 20.7 mph N/A   Scattered Clouds
12:55 AM 37.4 °F 28.5 °F 23.0 °F 56% 30.24 in 10.0 mi West 15.0 mph 20.7 mph N/A   Clear
1:15 AM 37.4 °F 28.5 °F 23.0 °F 56% 30.24 in 10.0 mi West 15.0 mph 20.7 mph N/A   Clear
1:35 AM 37.4 °F 28.5 °F 23.0 °F 56% 30.25 in 10.0 mi West 15.0 mph 20.7 mph N/A   Clear
1:55 AM 35.6 °F 25.9 °F 23.0 °F 60% 30.24 in 10.0 mi West 16.1 mph - N/A   Clear
2:15 AM 35.6 °F 25.5 °F 24.8 °F 65% 30.24 in 10.0 mi West 17.3 mph 20.7 mph N/A   Scattered Clouds
2:35 AM 37.4 °F 27.8 °F 24.8 °F 60% 30.24 in 10.0 mi WNW 17.3 mph - N/A   Mostly Cloudy
2:55 AM 35.6 °F 25.9 °F 24.8 °F 65% 30.24 in 10.0 mi WNW 16.1 mph 23.0 mph N/A   Scattered Clouds
3:15 AM 35.6 °F 25.5 °F 24.8 °F 65% 30.24 in 10.0 mi WNW 17.3 mph 21.9 mph N/A   Clear
3:35 AM 37.4 °F 27.8 °F 23.0 °F 56% 30.23 in 10.0 mi WNW 17.3 mph - N/A   Clear
3:55 AM 35.6 °F 25.5 °F 23.0 °F 60% 30.22 in 10.0 mi WNW 17.3 mph 26.5 mph N/A   Clear
4:15 AM 35.6 °F 25.5 °F 23.0 °F 60% 30.23 in 10.0 mi West 17.3 mph - N/A   Clear
4:35 AM 35.6 °F 26.6 °F 23.0 °F 60% 30.24 in 10.0 mi West 13.8 mph - N/A   Clear
4:55 AM 35.6 °F 28.0 °F 23.0 °F 60% 30.24 in 10.0 mi West 10.4 mph - N/A   Clear
5:15 AM 35.6 °F 28.0 °F 23.0 °F 60% 30.24 in 10.0 mi West 10.4 mph - N/A   Clear
5:35 AM 35.6 °F 27.5 °F 24.8 °F 65% 30.24 in 10.0 mi West 11.5 mph - N/A   Clear
5:55 AM 35.6 °F 27.5 °F 24.8 °F 65% 30.25 in 10.0 mi West 11.5 mph - N/A   Clear
6:15 AM 35.6 °F 27.5 °F 24.8 °F 65% 30.24 in 10.0 mi West 11.5 mph - N/A   Clear
6:35 AM 35.6 °F 28.0 °F 24.8 °F 65% 30.24 in 10.0 mi West 10.4 mph 16.1 mph N/A   Clear
6:55 AM 35.6 °F 28.0 °F 24.8 °F 65% 30.24 in 10.0 mi West 10.4 mph - N/A   Clear
7:15 AM 35.6 °F 28.0 °F 24.8 °F 65% 30.24 in 10.0 mi West 10.4 mph - N/A   Clear
7:35 AM 35.6 °F 27.1 °F 24.8 °F 65% 30.25 in 10.0 mi WSW 12.7 mph - N/A   Clear
7:55 AM 35.6 °F 28.6 °F 23.0 °F 60% 30.25 in 10.0 mi SW 9.2 mph - N/A   Clear
8:15 AM 35.6 °F 28.0 °F 24.8 °F 65% 30.26 in 10.0 mi WSW 10.4 mph - N/A   Clear
8:35 AM 35.6 °F 28.0 °F 24.8 °F 65% 30.26 in 10.0 mi WSW 10.4 mph - N/A   Clear
8:55 AM 37.4 °F 30.3 °F 23.0 °F 56% 30.26 in 10.0 mi WSW 10.4 mph - N/A   Clear
9:14 AM 35.6 °F 27.5 °F 23.0 °F 60% 30.26 in 10.0 mi WSW 11.5 mph - N/A   Clear
9:34 AM 37.4 °F 29.8 °F 23.0 °F 56% 30.26 in 10.0 mi SW 11.5 mph - N/A   Clear
9:55 AM 37.4 °F 29.3 °F 23.0 °F 56% 30.27 in 10.0 mi SW 12.7 mph - N/A   Clear
10:15 AM 39.2 °F 33.0 °F 23.0 °F 52% 30.27 in 10.0 mi SW 9.2 mph - N/A   Mostly Cloudy
10:35 AM 39.2 °F 32.5 °F 23.0 °F 52% 30.27 in 10.0 mi WSW 10.4 mph - N/A   Scattered Clouds
10:55 AM 39.2 °F 32.0 °F 21.2 °F 49% 30.26 in 10.0 mi WSW 11.5 mph - N/A   Clear
11:15 AM 41.0 °F 34.3 °F 21.2 °F 45% 30.26 in 10.0 mi WSW 11.5 mph 17.3 mph N/A   Clear
11:35 AM 41.0 °F 35.2 °F 21.2 °F 45% 30.26 in 10.0 mi West 9.2 mph - N/A   Clear
11:55 AM 41.0 °F 33.9 °F 21.2 °F 45% 30.26 in 10.0 mi West 12.7 mph 16.1 mph N/A   Clear
12:15 PM 41.0 °F 33.1 °F 21.2 °F 45% 30.25 in 10.0 mi West 15.0 mph - N/A   Clear
12:35 PM 41.0 °F 34.7 °F 21.2 °F 45% 30.25 in 10.0 mi WSW 10.4 mph 19.6 mph N/A   Clear
12:55 PM 41.0 °F 33.9 °F 21.2 °F 45% 30.24 in 10.0 mi West 12.7 mph 18.4 mph N/A   Clear
1:15 PM 42.8 °F 37.0 °F 21.2 °F 42% 30.24 in 10.0 mi West 10.4 mph 18.4 mph N/A   Clear
1:35 PM 42.8 °F 35.4 °F 21.2 °F 42% 30.24 in 10.0 mi West 15.0 mph 20.7 mph N/A   Clear
1:55 PM 42.8 °F 36.6 °F 21.2 °F 42% 30.24 in 10.0 mi WNW 11.5 mph 19.6 mph N/A   Clear
2:15 PM 44.6 °F 40.7 °F 21.2 °F 39% 30.24 in 10.0 mi West 6.9 mph - N/A   Clear
2:35 PM 42.8 °F 37.5 °F 21.2 °F 42% 30.23 in 10.0 mi West 9.2 mph 18.4 mph N/A   Clear
2:55 PM 44.6 °F 39.7 °F 21.2 °F 39% 30.23 in 10.0 mi WNW 9.2 mph 20.7 mph N/A   Clear
3:15 PM 44.6 °F 38.1 °F 19.4 °F 37% 30.23 in 10.0 mi West 13.8 mph 21.9 mph N/A   Clear
3:35 PM 44.6 °F 39.2 °F 19.4 °F 37% 30.23 in 10.0 mi West 10.4 mph 18.4 mph N/A   Clear
3:55 PM 44.6 °F 38.8 °F 19.4 °F 37% 30.23 in 10.0 mi West 11.5 mph 17.3 mph N/A   Clear
4:15 PM 44.6 °F 39.2 °F 19.4 °F 37% 30.23 in 10.0 mi West 10.4 mph 20.7 mph N/A   Clear
4:35 PM 44.6 °F 39.2 °F 19.4 °F 37% 30.23 in 10.0 mi West 10.4 mph 18.4 mph N/A   Clear
4:55 PM 44.6 °F 40.2 °F 19.4 °F 37% 30.23 in 10.0 mi West 8.1 mph 17.3 mph N/A   Clear
5:15 PM 42.8 °F 35.8 °F 19.4 °F 39% 30.23 in 10.0 mi West 13.8 mph 18.4 mph N/A   Clear
5:34 PM 42.8 °F 36.6 °F 19.4 °F 39% 30.23 in 10.0 mi West 11.5 mph 16.1 mph N/A   Clear
5:55 PM 42.8 °F 36.6 °F 19.4 °F 39% 30.24 in 10.0 mi West 11.5 mph - N/A   Clear
6:15 PM 41.0 °F 34.3 °F 17.6 °F 39% 30.24 in 10.0 mi West 11.5 mph - N/A   Clear
6:35 PM 41.0 °F 34.7 °F 17.6 °F 39% 30.24 in 10.0 mi West 10.4 mph - N/A   Clear
6:55 PM 41.0 °F 34.3 °F 17.6 °F 39% 30.24 in 10.0 mi West 11.5 mph 17.3 mph N/A   Clear
7:15 PM 41.0 °F 33.5 °F 17.6 °F 39% 30.24 in 10.0 mi West 13.8 mph - N/A   Clear
7:35 PM 41.0 °F 35.2 °F 17.6 °F 39% 30.24 in 10.0 mi West 9.2 mph 16.1 mph N/A   Clear
7:55 PM 41.0 °F 34.7 °F 17.6 °F 39% 30.24 in 10.0 mi West 10.4 mph - N/A   Clear
8:15 PM 41.0 °F 34.3 °F 17.6 °F 39% 30.24 in 10.0 mi West 11.5 mph - N/A   Clear
8:35 PM 41.0 °F 33.9 °F 17.6 °F 39% 30.23 in 10.0 mi West 12.7 mph 17.3 mph N/A   Clear
8:55 PM 41.0 °F 34.7 °F 17.6 °F 39% 30.24 in 10.0 mi WSW 10.4 mph - N/A   Clear
9:15 PM 41.0 °F 35.8 °F 17.6 °F 39% 30.24 in 10.0 mi WSW 8.1 mph - N/A   Clear
9:35 PM 41.0 °F 35.2 °F 17.6 °F 39% 30.24 in 10.0 mi WSW 9.2 mph - N/A   Clear
9:55 PM 41.0 °F 36.4 °F 17.6 °F 39% 30.24 in 10.0 mi WSW 6.9 mph - N/A   Clear
10:15 PM 41.0 °F 34.7 °F 15.8 °F 36% 30.24 in 10.0 mi West 10.4 mph - N/A   Clear
10:35 PM 41.0 °F 34.3 °F 15.8 °F 36% 30.24 in 10.0 mi West 11.5 mph - N/A   Clear
10:55 PM 41.0 °F 34.3 °F 14.0 °F 33% 30.25 in 10.0 mi West 11.5 mph 16.1 mph N/A   Clear
11:15 PM 41.0 °F 33.1 °F 14.0 °F 33% 30.24 in 10.0 mi West 15.0 mph 19.6 mph N/A   Clear
11:35 PM 41.0 °F 33.5 °F 14.0 °F 33% 30.24 in 10.0 mi West 13.8 mph 19.6 mph N/A   Clear
11:55 PM 41.0 °F 33.9 °F 14.0 °F 33% 30.24 in 10.0 mi West 12.7 mph 20.7 mph N/A   Clear